This is the latest recevied weather packets stored in our database for station/object KB0BDN-13. If no packets are shown the sender has not sent any weather packets the latest 10 day(s).
| Time | Temp. | Humidity | Pressure | Rain* | Wind** | Luminosity | Snow |
|---|---|---|---|---|---|---|---|
| 1777417611 | 3.89° C | 85% | 1007.7 hPa | 0 mm | - | - | - |
| 1777416711 | 3.89° C | 85% | 1007.6 hPa | 0 mm | - | - | - |
| 1777415811 | 3.89° C | 84% | 1007.2 hPa | 0 mm | - | - | - |
| 1777414910 | 4.44° C | 85% | 1007.1 hPa | 0 mm | - | - | - |
| 1777414010 | 4.44° C | 86% | 1006.8 hPa | 0 mm | - | - | - |
| 1777413110 | 4.44° C | 86% | 1006.7 hPa | 0 mm | - | - | - |
| 1777412210 | 5° C | 82% | 1006.5 hPa | 0 mm | - | - | - |
| 1777411310 | 5° C | 81% | 1006.2 hPa | 0 mm | - | - | - |
| 1777410410 | 5° C | 80% | 1006 hPa | 0 mm | - | - | - |
| 1777409510 | 5° C | 82% | 1005.9 hPa | 0 mm | - | - | - |
| 1777408610 | 5° C | 81% | 1005.8 hPa | 0 mm | - | - | - |
| 1777407710 | 5° C | 83% | 1005.5 hPa | 0 mm | - | - | - |
| 1777406810 | 5° C | 84% | 1005.4 hPa | 0 mm | - | - | - |
| 1777405910 | 4.44° C | 87% | 1004.9 hPa | 0.25 mm | - | - | - |
| 1777405010 | 4.44° C | 88% | 1004.9 hPa | 0.25 mm | - | - | - |
| 1777404110 | 4.44° C | 86% | 1005.4 hPa | 0.25 mm | - | - | - |
| 1777403210 | 4.44° C | 87% | 1005 hPa | 0.25 mm | - | - | - |
| 1777402310 | 3.89° C | 89% | 1004.9 hPa | 0.25 mm | - | - | - |
| 1777401410 | 3.33° C | 91% | 1004.8 hPa | 0.25 mm | - | - | - |
| 1777400510 | 3.33° C | 93% | 1004.4 hPa | 0 mm | - | - | - |
| 1777399608 | 2.78° C | 94% | 1004.3 hPa | 0 mm | - | - | - |
| 1777398707 | 2.22° C | 95% | 1004.1 hPa | 0 mm | - | - | - |
| 1777397807 | 2.22° C | 95% | 1003.4 hPa | 0 mm | - | - | - |
| 1777396907 | 2.78° C | 97% | 1003.1 hPa | 0 mm | - | - | - |
| 1777396007 | 2.22° C | 97% | 1002.5 hPa | 0 mm | - | - | - |
* Rain latest hour (hover to see other rain measurements)
** Current wind speed in m/s (hover to see current wind gust speed)